Location: Unspecified
(0.0000°N, 0.0000°E)
Time: 14:20:23
(UTC+00:00)

deb Delta 126 - Pass Details

Date: 15 February 2026
Orbit: 1137 x 1258 km, 102.0° (Epoch: 8 March)

Event Time Altitude Azimuth Distance (km) Brightness Sun altitude
Rises 03:56:16 0° 182° (S) 4,181 ? -33.5°
Reaches altitude 10° 03:59:08 10° 190° (S) 3,223 ? -32.8°
Enters shadow 04:01:54 22° 205° (SSW) 2,417 ? -32.2°
